Station SWLA2 - 9455090 - Seward, AK Image indicating link to RSS feed of recent meteorological observations for station SWLA2


Conditions at SWLA2 as of
(7:30 am AKDT)
1530 GMT on 06/25/2024:
     

Click on the graph icon in the table below to see a time series plot of the last five days of that observation.

5-day plot - Atmospheric Pressure Atmospheric Pressure (PRES):30.18 in
5-day plot - Water Temperature Water Temperature (WTMP): 56.8 °F
NOS Water Level Observation Network Water Level
Previous observations
TIME
(AKDT)
5-day plot - Wind Direction
WDIR
 
5-day plot - Wind Speed
WSPD
kts
5-day plot - Wind Gust
GST
kts
5-day plot - Wave Height
WVHT
ft
5-day plot - Dominant Wave Period
DPD
sec
5-day plot - Average Wave Period
APD
sec
5-day plot - Mean Wave Direction
MWD
 
5-day plot - Atmospheric Pressure
PRES
in
5-day plot - Pressure Tendency
PTDY
in
5-day plot - Air Temperature
ATMP
°F
5-day plot - Water Temperature
WTMP
°F
5-day plot - Dew Point
DEWP
°F
5-day plot - Salinity
SAL
psu
5-day plot - Visibility
VIS
nmi
5-day plot - Tide (above MLLW)
TIDE
ft
2024-06-25 07:24 am-------30.18-- 56.7----
2024-06-25 07:18 am-------30.18-- 56.5----
2024-06-25 07:12 am-------30.18-- 56.1----
2024-06-25 07:06 am-------30.18-- 55.9----
2024-06-25 07:00 am-------30.18+0.02- 55.8----
2024-06-25 06:54 am-------30.18-- 55.8----
2024-06-25 06:48 am-------30.18-- 55.6----
2024-06-25 06:42 am-------30.18-- 55.4----
2024-06-25 06:36 am-------30.18-- 55.4----
2024-06-25 06:30 am-------30.18-- 55.2----
2024-06-25 06:24 am-------30.18-- 55.2----
2024-06-25 06:18 am-------30.17-- 54.9----
2024-06-25 06:12 am-------30.17-- 54.5----
2024-06-25 06:06 am-------30.17-- 54.3----
2024-06-25 06:00 am-------30.17+0.00- 54.3----
2024-06-25 05:54 am-------30.17-- 54.3----
2024-06-25 05:48 am-------30.17-- 54.0----
2024-06-25 05:42 am-------30.17-- 53.8----
2024-06-25 05:36 am-------30.17-- 53.6----
2024-06-25 05:30 am-------30.17-- 53.2----
2024-06-25 05:24 am-------30.17-- 53.2----
2024-06-25 05:18 am-------30.17-------
2024-06-25 05:12 am-------30.17-- 53.1----
2024-06-25 05:06 am-------30.17-- 53.1----
2024-06-25 05:00 am-------30.17+0.01- 52.9----
2024-06-25 04:54 am-------30.16-- 52.7----
2024-06-25 04:48 am-------30.16-- 52.7----
2024-06-25 04:42 am-------30.16-- 52.5----
2024-06-25 04:36 am-------30.16-- 52.5----
2024-06-25 04:30 am-------30.16-- 52.3----
2024-06-25 04:24 am-------30.16-- 52.0----
2024-06-25 04:18 am-------30.16-- 51.6----
2024-06-25 04:12 am-------30.16-- 51.4----
2024-06-25 04:06 am-------30.16-- 50.9----
2024-06-25 04:00 am-------30.16+0.01- 50.7----
2024-06-25 03:54 am-------30.16-- 50.7----
2024-06-25 03:48 am---------- 50.2----
2024-06-25 03:42 am---------- 50.2----
2024-06-25 03:36 am---------- 50.2----
2024-06-25 03:30 am-------30.16-- 50.2----
2024-06-25 03:24 am-------30.16-- 50.2----
2024-06-25 03:18 am-------30.16-- 50.0----
2024-06-25 03:12 am-------30.16-- 50.0----
2024-06-25 03:06 am-------30.16-- 49.8----
2024-06-25 03:00 am-------30.16+0.02- 49.8----
2024-06-25 02:54 am-------30.16-- 49.6----
2024-06-25 02:48 am-------30.17-------
2024-06-25 02:42 am-------30.16-- 49.6----
2024-06-25 02:36 am-------30.16-- 49.6----
2024-06-25 02:30 am-------30.16-- 49.6----
2024-06-25 02:24 am-------30.16-- 49.8----
2024-06-25 02:18 am-------30.16-- 50.0----
2024-06-25 02:12 am-------30.16-- 50.2----
2024-06-25 02:06 am-------30.16-- 50.4----
2024-06-25 02:00 am-------30.16+0.03- 50.5----
2024-06-25 01:54 am-------30.16-- 50.9----
2024-06-25 01:48 am-------30.16-------
2024-06-25 01:42 am-------30.16-- 51.3----
2024-06-25 01:36 am-------30.16-- 51.4----
2024-06-25 01:30 am-------30.16-- 51.6----
2024-06-25 01:24 am-------30.16-- 51.8----
2024-06-25 01:18 am-------30.15-------
2024-06-25 01:12 am-------30.15-- 52.2----
2024-06-25 01:06 am-------30.15-- 52.7----
2024-06-25 01:00 am-------30.15+0.04- 53.2----
2024-06-25 12:54 am-------30.16-- 53.8----
2024-06-25 12:48 am-------30.15-- 54.3----
2024-06-25 12:42 am-------30.15-- 54.7----
2024-06-25 12:36 am-------30.15-- 55.0----
2024-06-25 12:30 am-------30.15-- 55.4----
2024-06-25 12:24 am-------30.15-- 55.8----
2024-06-25 12:18 am-------30.15-- 55.9----
2024-06-25 12:12 am-------30.15-- 55.9----
2024-06-25 12:06 am-------30.15-- 56.1----
2024-06-25 12:00 am-------30.15+0.04- 56.1----
2024-06-24 11:54 pm-------30.14-- 56.1----
2024-06-24 11:48 pm-------30.14-- 56.1----
2024-06-24 11:42 pm-------30.14-- 56.1----
2024-06-24 11:36 pm-------30.14-- 56.1----
2024-06-24 11:30 pm-------30.14-- 56.3----
2024-06-24 11:24 pm-------30.14-- 56.3----
2024-06-24 11:18 pm-------30.14-- 56.3----
2024-06-24 11:12 pm-------30.13-- 56.3----
2024-06-24 11:06 pm-------30.13-- 56.3----
2024-06-24 11:00 pm-------30.13+0.04- 56.5----
2024-06-24 10:54 pm-------30.13-- 56.5----
2024-06-24 10:48 pm-------30.13-- 56.5----
2024-06-24 10:42 pm-------30.12-- 56.5----
2024-06-24 10:36 pm-------30.12-- 56.7----
2024-06-24 10:30 pm-------30.12-- 56.7----
2024-06-24 10:24 pm-------30.12-- 56.7----
2024-06-24 10:18 pm-------30.12-- 56.7----
2024-06-24 10:12 pm-------30.11-- 56.7----
2024-06-24 10:06 pm-------30.11-- 56.7----
2024-06-24 10:00 pm-------30.11+0.03- 56.7----
2024-06-24 09:54 pm-------30.11-- 56.7----
2024-06-24 09:48 pm-------30.11-- 56.7----
2024-06-24 09:42 pm-------30.11-- 56.7----
2024-06-24 09:36 pm-------30.11-- 56.7----
2024-06-24 09:30 pm-------30.11-- 56.7----
2024-06-24 09:24 pm-------30.11-- 56.7----
2024-06-24 09:18 pm-------30.10-- 56.7----
2024-06-24 09:12 pm-------30.10-- 56.7----
2024-06-24 09:06 pm-------30.10-- 56.7----
2024-06-24 09:00 pm-------30.10+0.03- 56.5----
2024-06-24 08:54 pm-------30.10-- 56.7----
2024-06-24 08:48 pm-------30.10-- 56.7----
2024-06-24 08:42 pm-------30.10-- 56.7----
2024-06-24 08:36 pm-------30.10-- 56.7----
2024-06-24 08:30 pm-------30.10-- 56.7----
2024-06-24 08:24 pm-------30.10-- 56.7----
2024-06-24 08:18 pm-------30.10-- 56.5----
2024-06-24 08:12 pm-------30.10-- 56.5----
2024-06-24 08:06 pm-------30.09-- 56.5----
2024-06-24 08:00 pm-------30.09+0.03- 56.5----
2024-06-24 07:54 pm-------30.09-- 56.3----
2024-06-24 07:48 pm-------30.09-- 56.3----
2024-06-24 07:42 pm-------30.09-- 56.1----
2024-06-24 07:36 pm-------30.09-- 56.1----
2024-06-24 07:30 pm-------30.09-- 56.1----
2024-06-24 07:24 pm-------30.09-- 56.1----
2024-06-24 07:18 pm-------30.09-- 56.1----
2024-06-24 07:12 pm-------30.09-- 56.1----
2024-06-24 07:06 pm-------30.09-- 56.1----
2024-06-24 07:00 pm-------30.09+0.02- 56.1----
2024-06-24 06:54 pm-------30.08-- 56.1----
2024-06-24 06:48 pm-------30.08-- 56.1----
2024-06-24 06:42 pm-------30.08-- 56.1----
2024-06-24 06:36 pm-------30.08-- 56.1----
2024-06-24 06:30 pm-------30.08-- 55.9----
2024-06-24 06:24 pm-------30.07-- 56.1----
2024-06-24 06:18 pm-------30.07-- 56.1----
2024-06-24 06:12 pm-------30.07-- 56.1----
2024-06-24 06:06 pm-------30.07-- 55.9----
2024-06-24 06:00 pm-------30.07+0.01- 56.1----
2024-06-24 05:54 pm-------30.07-- 55.9----
2024-06-24 05:48 pm-------30.07-- 55.9----
2024-06-24 05:42 pm-------30.06-- 55.9----
2024-06-24 05:36 pm-------30.06-- 55.8----
2024-06-24 05:30 pm-------30.06-- 55.8----
2024-06-24 05:24 pm-------30.06-- 55.4----
2024-06-24 05:18 pm-------30.06-- 55.2----
2024-06-24 05:12 pm-------30.06-- 55.2----
2024-06-24 05:06 pm-------30.06-- 54.9----
2024-06-24 05:00 pm-------30.06+0.00- 54.3----
2024-06-24 04:54 pm-------30.06-- 54.3----
2024-06-24 04:48 pm-------30.06-- 53.4----
2024-06-24 04:42 pm-------30.06-- 53.1----
2024-06-24 04:36 pm-------30.06-- 52.9----
2024-06-24 04:30 pm-------30.06-- 52.7----
2024-06-24 04:24 pm-------30.06-- 52.7----
2024-06-24 04:18 pm-------30.06-- 52.7----
2024-06-24 04:12 pm-------30.06-- 52.5----
2024-06-24 04:06 pm-------30.06-- 52.5----
2024-06-24 04:00 pm-------30.06+0.02------
2024-06-24 03:54 pm-------30.06-------
2024-06-24 03:48 pm-------30.06-- 52.5----
2024-06-24 03:42 pm-------30.06-- 52.5----
2024-06-24 03:36 pm-------30.06-- 52.5----
2024-06-24 03:30 pm-------30.06-- 52.5----
2024-06-24 03:24 pm-------30.06-- 52.5----
2024-06-24 03:18 pm-------30.06-- 52.5----
2024-06-24 03:12 pm-------30.06-- 52.5----
2024-06-24 03:06 pm-------30.06-- 52.5----
2024-06-24 03:00 pm-------30.06-------
2024-06-24 02:54 pm-------30.06-------
2024-06-24 02:48 pm-------30.06-- 52.9----
2024-06-24 02:42 pm-------30.06-- 53.1----
2024-06-24 02:36 pm-------30.06-- 53.4----
2024-06-24 02:30 pm-------30.06-- 53.8----
2024-06-24 02:24 pm-------30.06-- 54.1----
2024-06-24 02:18 pm-------30.06-- 54.1----
2024-06-24 02:12 pm-------30.06-- 54.3----
2024-06-24 02:06 pm-------30.06-- 54.5----
2024-06-24 02:00 pm-------30.06-- 54.3----
2024-06-24 01:54 pm-------30.06-- 54.3----
2024-06-24 01:48 pm-------30.06-- 54.5----
2024-06-24 01:42 pm-------30.05-- 54.7----
2024-06-24 01:36 pm-------30.05-- 55.0----
2024-06-24 01:30 pm-------30.05-- 55.2----
2024-06-24 01:24 pm-------30.05-- 55.6----
2024-06-24 01:18 pm-------30.05-- 55.6----
2024-06-24 01:12 pm-------30.05-- 55.8----
2024-06-24 01:06 pm-------30.05-- 55.9----
2024-06-24 01:00 pm-------30.04+0.02- 56.1----
2024-06-24 12:54 pm-------30.04-- 56.5----
2024-06-24 12:48 pm-------30.04-- 56.5----
2024-06-24 12:42 pm-------30.04-- 56.5----
2024-06-24 12:36 pm-------30.04-- 56.5----
2024-06-24 12:30 pm-------30.04-- 56.5----
2024-06-24 12:24 pm-------30.04-- 56.5----
2024-06-24 12:18 pm-------30.04-- 56.5----
2024-06-24 12:12 pm-------30.04-- 56.5----
2024-06-24 12:06 pm-------30.03-- 56.5----
2024-06-24 12:00 pm---------- 56.5----
2024-06-24 11:54 am---------- 56.5----
2024-06-24 11:48 am-------30.03-- 56.5----
2024-06-24 11:42 am-------30.03-- 56.7----
2024-06-24 11:36 am-------30.03-- 56.7----
2024-06-24 11:30 am-------30.03-- 56.7----
2024-06-24 11:24 am-------30.03-- 56.7----
2024-06-24 11:18 am-------30.03-- 56.7----
2024-06-24 11:12 am-------30.03-- 56.7----
2024-06-24 11:06 am-------30.03-- 56.7----
2024-06-24 11:00 am---------- 56.5----
2024-06-24 10:54 am---------- 56.5----
2024-06-24 10:48 am-------30.03-- 56.5----
2024-06-24 10:42 am-------30.03-- 56.5----
2024-06-24 10:36 am-------30.03-- 56.5----
2024-06-24 10:30 am-------30.03-- 56.5----
2024-06-24 10:24 am-------30.03-- 56.3----
2024-06-24 10:18 am-------30.03-- 56.3----
2024-06-24 10:12 am-------30.03-- 56.3----
2024-06-24 10:06 am-------30.03-- 56.3----
2024-06-24 10:00 am-------30.02+0.03- 56.5----
2024-06-24 09:54 am-------30.02-- 56.8----
2024-06-24 09:48 am-------30.02-------
2024-06-24 09:42 am-------30.02-- 57.0----
2024-06-24 09:36 am-------30.02-- 57.0----
2024-06-24 09:30 am-------30.02-- 57.0----
2024-06-24 09:24 am-------30.02-- 57.0----
2024-06-24 09:18 am-------30.02-- 57.0----
2024-06-24 09:12 am-------30.02-- 57.0----
2024-06-24 09:06 am-------30.01-- 57.0----
2024-06-24 09:00 am-------30.01+0.03- 57.0----
2024-06-24 08:54 am-------30.01-- 57.0----
2024-06-24 08:48 am-------30.01-- 57.0----
2024-06-24 08:42 am-------30.01-- 57.0----
2024-06-24 08:36 am-------30.01-- 57.0----
2024-06-24 08:30 am-------30.01-- 57.0----
2024-06-24 08:24 am-------30.01-- 57.0----
2024-06-24 08:18 am-------30.01-- 57.0----
2024-06-24 08:12 am-------30.01-- 57.0----
2024-06-24 08:06 am-------30.01-- 57.0----
2024-06-24 08:00 am-------30.01+0.03- 57.0----
2024-06-24 07:54 am-------30.01-- 57.0----